Showing default

KOMPSAT 5, 39227

Orbit data source: Space-Track

KOMPSAT 5, 39227 is a payload satellite owned by KARI (KR) in SSO that was launched on Thu, 22 Aug 2013 UTC via a DNEPR launch vehicle from the Orenburg, Russia (OREN). Payload-class satellites include a variety of spacecraft equipped with specific instruments for various scientific and technological missions. These include communications satellites like Starlink; space stations such as the ISS; scientific satellites like the Hubble; Earth observation satellites from companies like Planet Labs, Umbra, and HawkEye 360; GPS; miniature CubeSats for education and research; and military/defense satellites.

Loading next visibility...
Identifier
39227, 2013-042A
Orbit
SSO
Last TLE update
9 hours ago
Origin
Manufacturer
KARI
Mission
Operational Civil Radar Imaging
Bus & Motor
KOMPSAT, AOCS?
Mass
1,400 kg wet, 1,400 kg dry
Launch date (UTC)
2013-08-22 (12 years ago)
Launch vehicle
DNEPR
Launch site
Orenburg, Russia (OREN)
Object type
Payload
Rocket body
Debris
Shape & HBR
Hex Cyl + 2 Pan, 7 m
Radar Cross Section
12.043 m², Large (>1 m²)

Expand to show TLE details & history

TLE from 9 hours ago
0 KOMPSAT 5
1 39227U 13042A   25189.78319153  .00001169  00000-0  87897-4 0  9995
2 39227  97.6205  16.2748 0001579 191.1748 168.9443 15.04488981652225
Epoch: 2025-07-08T18:47Z
TLE epoch observation values (Epoch: 2025-07-08T18:47:47.748Z)
Latitude
-0.00003°
Longitude
167.35263°
Altitude
557.212 km
Speed
7.582 km/s
True Right ascension
01h 05m 05s
True Declination
0° 00' 00"
Sunlit
Object was in daylight at epoch
Visualization orbit readout
Latitude
-24.56886°
Longitude
-15.76984°
Altitude
561.302 km
Speed
7.58 km/s
Apparent Right ascension
09h 30m 09s
Apparent Declination
-57° 27' 16"
Sunlit
Object is in daylight
Visualization observer readout
Local Sidereal Time
15:49:55
Azimuth
220.99° SW
Elevation
-35.202°
Doppler factor
1
Orbital elements
Apogee altitude
551.165 km
Perigee altitude
548.977 km
Semi-major axis
6,928.208 km
Eccentricity
0.00016
Inclination
97.6205°
RAAN
16.2748°
Arg. of periapsis
191.1748°
True anomaly
Unknown
Mean anomaly
168.9443°
Eccentric anomaly
Unknown
Mean motion
3.76367 °/min
Orbital period
95.65 mins
BSTAR
0.000087897
Loading maneuver chart data...
Loading SW <> Apogee altitude chart data...
Loading historical data...
Loading historical data...
Loading historical data...
Loading historical data...
Loading historical data...
Loading historical data...
Loading historical data...
Other satellites on launch #42 in the year 2013 (2013-08-22 UTC)

KOMPSAT 5 Visibility forecast

Observer location: undefined°, undefined°

Span
Click to sort rows by Start time (UTC) header in descending order
Start Az.
Max El. time (UTC)
Max El. Az.
Max El.
End time (UTC)
End Az.
6 mins2025-07-09 12:29:02.952Z166.731° S2025-07-09 12:32:02.952Z349.056° N44.984°2025-07-09 12:35:02.952Z347.743° N
6 mins2025-07-10 01:42:02.952Z351.677° N2025-07-10 01:44:02.952Z302.289° NW36.231°2025-07-10 01:48:02.952Z212.069° SW
|